Weather History for Michigan City, IN

Change the Weather History Date:

Friday, October 12, 2012

  Actual Average (KVPZ) Record (KVPZ)
Temperature  
Mean Temperature 45 °F 54 °F  
Max Temperature 53 °F 64 °F 85 °F (2008)
Min Temperature 37 °F 43 °F 29 °F (2006)
Degree Days  
Heating Degree Days 20 12  
Month to date heating degree days 124  
Since 1 July heating degree days 254  
Cooling Degree Days 0 0  
Month to date cooling degree days 11  
Year to date cooling degree days 713  
Moisture  
Dew Point 32 °F    
Average Humidity 64    
Maximum Humidity 93    
Minimum Humidity 28    
Precipitation  
Precipitation 0.00 in 0.12 in 0.82 in (2001)
Month to date precipitation 1.22  
Year to date precipitation 29.97  
Sea Level Pressure  
Sea Level Pressure 30.36 in    
Wind  
Wind Speed 5 mph ()    
Max Wind Speed 10 mph    
Max Gust Speed 18 mph    
Visibility 10.0 miles    
Events Rain    
T = Trace of Precipitation, MM = Missing Value Source: Averaged Metar Reports

Daily Weather History Graph

Daily Weather History Graph

Search for Another Location

Airport:

Trip Planner

Search our weather history database for the weather conditions in past years. The results will help you decide how hot, cold, wet, or windy it might be!

Date:

Astronomy

Oct. 12, 2012 Rise Set
Actual Time 6:56 AM CDT 6:09 PM CDT
Civil Twilight 6:28 AM CDT 6:37 PM CDT
Nautical Twilight 5:56 AM CDT 7:09 PM CDT
Astronomical Twilight 5:24 AM CDT 7:42 PM CDT
Moon 3:36 AM CDT (10/12) 4:21 PM CDT (10/12)
Length of Visible Light 12h 09m
Length of Day
11h 13m
Waning Crescent, 10% of the Moon is Illuminated
Oct 12
Waning Crescent
Oct 15
New
Oct 21
First Quarter
Oct 29
Full
Nov 6
Last Quarter

Hourly Weather History & Observations

Time (CDT) Temp. Windchill Dew Point Humidity Pressure Visibility Wind Dir Wind Speed Gust Speed Precip Events Conditions
12:15 AM 46.4 °F 42.4 °F 39.2 °F 76% 30.24 in 10.0 mi North 8.1 mph - N/A Rain Light Rain
12:35 AM 46.4 °F 41.9 °F 41.0 °F 81% 30.26 in 10.0 mi North 9.2 mph - N/A   Drizzle
12:55 AM 46.4 °F 41.5 °F 37.4 °F 71% 30.26 in 10.0 mi North 10.4 mph - N/A   Light Drizzle
1:15 AM 46.4 °F 42.4 °F 37.4 °F 71% 30.26 in 10.0 mi North 8.1 mph - N/A   Overcast
1:35 AM 46.4 °F 41.5 °F 37.4 °F 71% 30.27 in 10.0 mi North 10.4 mph 16.1 mph N/A   Light Drizzle
1:55 AM 44.6 °F 40.2 °F 37.4 °F 76% 30.28 in 10.0 mi North 8.1 mph 18.4 mph N/A Rain Light Rain
2:35 AM 44.6 °F 42.2 °F 42.8 °F 93% 30.28 in 10.0 mi NNE 4.6 mph - N/A Rain Light Rain
2:55 AM 44.6 °F 43.1 °F 42.8 °F 93% 30.28 in 10.0 mi NE 3.5 mph - N/A Rain Light Rain
3:15 AM 44.6 °F - 41.0 °F 87% 30.29 in 10.0 mi Calm Calm - N/A   Light Drizzle
3:35 AM 42.8 °F - 41.0 °F 93% 30.29 in 10.0 mi Calm Calm - N/A   Overcast
3:55 AM 42.8 °F 41.1 °F 41.0 °F 93% 30.30 in 10.0 mi NE 3.5 mph - N/A   Overcast
4:15 AM 42.8 °F 41.1 °F 39.2 °F 87% 30.31 in 10.0 mi ENE 3.5 mph - N/A   Overcast
4:35 AM 42.8 °F 41.1 °F 37.4 °F 81% 30.32 in 10.0 mi NE 3.5 mph - N/A   Overcast
4:55 AM 41.0 °F - 37.4 °F 87% 30.33 in 10.0 mi Calm Calm - N/A   Mostly Cloudy
5:15 AM 41.0 °F 39.0 °F 37.4 °F 87% 30.34 in 10.0 mi ENE 3.5 mph - N/A   Scattered Clouds
5:35 AM 41.0 °F 39.0 °F 35.6 °F 81% 30.35 in 10.0 mi NE 3.5 mph - N/A   Mostly Cloudy
5:55 AM 39.2 °F - 35.6 °F 87% 30.36 in 10.0 mi Calm Calm - N/A   Mostly Cloudy
6:15 AM 39.2 °F 37.0 °F 33.8 °F 81% 30.36 in 10.0 mi East 3.5 mph - N/A   Mostly Cloudy
6:35 AM 37.4 °F 34.9 °F 33.8 °F 87% 30.37 in 10.0 mi ENE 3.5 mph - N/A   Mostly Cloudy
6:55 AM 37.4 °F - 32.0 °F 81% 30.37 in 10.0 mi Calm Calm - N/A   Scattered Clouds
7:15 AM 37.4 °F - 32.0 °F 81% 30.38 in 10.0 mi Calm Calm - N/A   Scattered Clouds
7:35 AM 37.4 °F - 33.8 °F 87% 30.39 in 10.0 mi Calm Calm - N/A   Clear
7:55 AM 39.2 °F 35.9 °F 33.8 °F 81% 30.40 in 10.0 mi East 4.6 mph - N/A   Clear
8:15 AM 41.0 °F 38.0 °F 33.8 °F 76% 30.41 in 10.0 mi East 4.6 mph - N/A   Clear
8:35 AM 41.0 °F 39.0 °F 32.0 °F 70% 30.43 in 10.0 mi East 3.5 mph - N/A   Clear
8:55 AM 42.8 °F 40.1 °F 32.0 °F 66% 30.44 in 10.0 mi East 4.6 mph - N/A   Clear
9:15 AM 42.8 °F 40.1 °F 32.0 °F 66% 30.44 in 10.0 mi ESE 4.6 mph - N/A   Clear
9:55 AM 46.4 °F 43.5 °F 32.0 °F 57% 30.45 in 10.0 mi East 5.8 mph - N/A   Clear
10:15 AM 46.4 °F 42.9 °F 32.0 °F 57% 30.44 in 10.0 mi East 6.9 mph - N/A   Clear
10:35 AM 48.2 °F - 30.2 °F 50% 30.44 in 10.0 mi East 8.1 mph - N/A   Clear
10:55 AM 48.2 °F - 30.2 °F 50% 30.45 in 10.0 mi East 6.9 mph - N/A   Clear
11:15 AM 50.0 °F - 28.4 °F 43% 30.45 in 10.0 mi NE 6.9 mph - N/A   Clear
11:35 AM 50.0 °F - 28.4 °F 43% 30.44 in 10.0 mi NE 6.9 mph - N/A   Clear
11:55 AM 50.0 °F - 26.6 °F 40% 30.44 in 10.0 mi East 5.8 mph - N/A   Clear
12:15 PM 50.0 °F - 26.6 °F 40% 30.44 in 10.0 mi ENE 6.9 mph - N/A   Clear
12:55 PM 51.8 °F - 26.6 °F 38% 30.43 in 10.0 mi NE 9.2 mph - N/A   Clear
1:35 PM 51.8 °F - 24.8 °F 35% 30.41 in 10.0 mi Calm Calm - N/A   Clear
2:35 PM 51.8 °F - 24.8 °F 35% 30.40 in 10.0 mi NE 6.9 mph - N/A   Clear
3:15 PM 53.6 °F - 23.0 °F 30% 30.39 in 10.0 mi East 6.9 mph - N/A   Clear
3:55 PM 53.6 °F - 23.0 °F 30% 30.37 in 10.0 mi ESE 5.8 mph - N/A   Clear
4:15 PM 53.6 °F - 23.0 °F 30% 30.37 in 10.0 mi ENE 4.6 mph - N/A   Clear
4:35 PM 53.6 °F - 21.2 °F 28% 30.37 in 10.0 mi Calm Calm - N/A   Clear
4:55 PM 53.6 °F - 23.0 °F 30% 30.36 in 10.0 mi SE 4.6 mph - N/A   Clear
5:15 PM 51.8 °F - 23.0 °F 33% 30.36 in 10.0 mi Calm Calm - N/A   Clear
5:35 PM 51.8 °F - 23.0 °F 33% 30.36 in 10.0 mi Calm Calm - N/A   Clear
6:15 PM 46.4 °F - 26.6 °F 46% 30.35 in 10.0 mi Calm Calm - N/A   Clear
6:35 PM 44.6 °F - 28.4 °F 53% 30.35 in 10.0 mi Calm Calm - N/A   Clear
6:55 PM 41.0 °F - 28.4 °F 61% 30.35 in 10.0 mi Calm Calm - N/A   Clear
7:15 PM 39.2 °F - 30.2 °F 70% 30.35 in 10.0 mi Calm Calm - N/A   Clear